CW5709 Weather Reports


Display with metric or nautical units.
time (UTC)temp
F
wind
direction
speed
MPH
gust
MPH
rain 1hr
in
rain 24hr
in
rain mn
in
humidity
%
barometer
mb
20260507204517 74 0.0 0.0 0.00 0.00 0.00 44 1019.2
20260507203022 74 0.0 0.0 0.00 0.00 0.00 41 1019.5
20260507201509 73 0.0 0.0 0.00 0.00 0.00 45 1019.6
20260507191526 68 0.0 0.0 0.00 0.00 0.00 51 1020.0
20260507184518 64 0.0 0.0 0.00 0.00 0.00 58 1020.2
20260507181524 62 0.0 0.0 0.00 0.00 0.00 60 1020.5
20260507180028 62 0.0 0.0 0.00 0.00 0.00 62 1020.6
20260507171520 59 0.0 0.0 0.00 0.00 0.00 69 1020.8
20260507170022 59 0.0 0.0 0.00 0.00 0.00 69 1020.8
20260507164526 59 0.0 0.0 0.00 0.00 0.00 72 1020.9
20260507163016 58 0.0 0.0 0.00 0.00 0.00 73 1020.8
20260507161521 57 0.0 0.0 0.00 0.00 0.00 74 1020.8
20260507160024 57 0.0 0.0 0.00 0.00 0.00 75 1020.9
20260507154532 56 0.0 0.0 0.00 0.00 0.00 78 1020.9
20260507153038 55 0.0 0.0 0.00 0.00 0.00 78 1021.0
20260507151518 55 0.0 0.0 0.00 0.00 0.00 81 1021.0
20260507150026 54 0.0 0.0 0.00 0.00 0.00 81 1021.1
20260507144523 54 0.0 0.0 0.00 0.00 0.00 82 1021.0
20260507143027 54 0.0 0.0 0.00 0.00 0.00 83 1020.9
20260507141504 54 0.0 0.0 0.00 0.00 0.00 83 1020.9
20260507133008 53 0.0 0.0 0.00 0.00 0.00 83 1020.7
20260507131516 53 0.0 0.0 0.00 0.00 0.00 83 1020.7
20260507130012 53 0.0 0.0 0.00 0.00 0.00 83 1020.8
20260507124511 53 0.0 0.0 0.00 0.00 0.00 82 1020.8
20260507121512 53 0.0 0.0 0.00 0.00 0.00 82 1021.1
20260507120018 53 0.0 0.0 0.00 0.00 0.00 82 1021.1
20260507114509 53 0.0 0.0 0.00 0.00 0.00 82 1021.1
20260507113010 53 0.0 0.0 0.00 0.00 0.00 83 1021.2
20260507110014 53 0.0 0.0 0.00 0.00 0.00 82 1021.3
20260507104513 53 0.0 0.0 0.00 0.00 0.00 82 1021.3
20260507103026 53 0.0 0.0 0.00 0.00 0.00 82 1021.3
20260507101515 53 0.0 0.0 0.00 0.00 0.00 82 1021.5
20260507100012 53 0.0 0.0 0.00 0.00 0.00 82 1021.5
20260507094516 53 0.0 0.0 0.00 0.00 0.00 83 1021.7
20260507093026 52 0.0 0.0 0.00 0.00 0.00 83 1021.8
20260507091515 52 0.0 0.0 0.00 0.00 0.00 84 1021.9
20260507090012 52 0.0 0.0 0.00 0.00 0.00 84 1021.9
20260507084511 52 0.0 0.0 0.00 0.00 0.00 83 1021.9
20260507083014 52 0.0 0.0 0.00 0.00 0.00 83 1022.1
20260507081511 52 0.0 0.0 0.00 0.00 0.00 83 1022.0
20260507080016 52 0.0 0.0 0.00 0.00 0.00 83 1022.0
20260507073017 52 0.0 0.0 0.00 0.00 0.00 82 1022.1
20260507071548 52 0.0 0.0 0.00 0.00 0.00 82 1022.1
20260507070016 51 0.0 0.0 0.00 0.00 0.00 82 1022.1
20260507064522 51 0.0 0.0 0.00 0.00 0.00 81 1022.1
20260507061518 52 0.0 0.0 0.00 0.00 0.00 80 1022.2
20260507060020 52 0.0 0.0 0.00 0.00 0.00 80 1022.2
20260507054519 52 0.0 0.0 0.00 0.00 0.00 79 1022.2
20260507053020 53 0.0 0.0 0.00 0.00 0.00 79 1022.1
20260507051527 53 0.0 0.0 0.00 0.00 0.00 80 1021.9
20260507050013 53 0.0 0.0 0.00 0.00 0.00 79 1021.8
20260507044505 53 0.0 0.0 0.00 0.00 0.00 79 1021.6
20260507043011 53 0.0 0.0 0.00 0.00 0.00 79 1021.6
20260507041516 54 0.0 0.0 0.00 0.00 0.00 78 1021.5
20260507040013 54 0.0 0.0 0.00 0.00 0.00 78 1021.5
20260507034527 54 0.0 0.0 0.00 0.00 0.00 78 1021.3
20260507033014 55 0.0 0.0 0.00 0.00 0.00 77 1021.2
20260507031512 55 0.0 0.0 0.00 0.00 0.00 76 1021.0
20260507030024 56 0.0 0.0 0.00 0.00 0.00 75 1020.8
20260507024517 57 0.0 0.0 0.00 0.00 0.00 73 1020.9
20260507023020 58 0.0 0.0 0.00 0.00 0.00 71 1020.9
20260507021506 58 0.0 0.0 0.00 0.00 0.00 71 1021.0
20260507020017 59 0.0 0.0 0.00 0.00 0.00 69 1021.0
20260507014516 60 0.0 0.0 0.00 0.00 0.00 68 1021.0
20260507013021 60 0.0 0.0 0.00 0.00 0.00 66 1020.9
20260507011517 61 0.0 0.0 0.00 0.00 0.00 65 1020.9
20260507010016 62 0.0 0.0 0.00 0.00 0.00 63 1020.9
20260507004514 62 0.0 0.0 0.00 0.00 0.00 64 1021.0
20260507003021 63 0.0 0.0 0.00 0.00 0.00 62 1020.9
20260507001520 64 0.0 0.0 0.00 0.00 0.00 61 1020.8
20260507000018 64 0.0 0.0 0.00 0.00 0.00 60 1020.9
20260506234511 65 0.0 0.0 0.00 0.00 0.00 61 1020.8
20260506233016 65 0.0 0.0 0.00 0.00 0.00 58 1020.7
20260506231520 66 0.0 0.0 0.00 0.00 0.00 57 1020.7
20260506230023 67 0.0 0.0 0.00 0.00 0.00 56 1020.7
20260506224510 67 0.0 0.0 0.00 0.00 0.00 55 1020.8
20260506223009 69 0.0 0.0 0.00 0.00 0.00 54 1021.0
20260506221516 69 0.0 0.0 0.00 0.00 0.00 53 1020.9
20260506220033 69 0.0 0.0 0.00 0.00 0.00 53 1021.0
20260506214508 69 0.0 0.0 0.00 0.00 0.00 54 1021.0
20260506213009 69 0.0 0.0 0.00 0.00 0.00 53 1021.0
20260506211515 68 0.0 0.0 0.00 0.00 0.00 56 1021.1